GFSCGP_925_temp_336.txt.gz
Temp
13 12 11 12 13 15 15 15 17 17 16 16 15 15 16 16 14 15 14 13 13 12 10 11 12 13 13 13 13 13 12 12 11 10 10 9 9 9 9 8 8 8 8 8
12 11 12 13 13 15 15 16 16 17 16 16 15 15 15 15 16 16 14 12 12 10 8 7 9 10 11 12 12 12 12 12 11 11 10 10 10 9 9 8 8 8 8 8
11 14 12 13 12 13 13 14 16 17 16 16 14 15 18 18 16 15 12 12 11 9 8 7 7 9 10 11 12 12 12 11 10 10 10 10 9 8 8 8 8 8 8 8
12 13 12 12 13 13 13 13 15 17 16 15 14 15 17 18 16 16 14 11 9 9 8 7 7 8 10 10 11 11 11 10 10 10 10 10 10 9 9 8 8 8 8 8
12 11 12 12 13 13 14 12 13 15 14 14 15 14 15 16 18 16 14 11 10 9 8 8 7 9 9 10 11 11 10 10 10 10 10 10 9 9 8 8 8 8 8 9
12 12 13 13 13 13 11 12 11 10 11 8 13 14 15 17 17 17 15 11 10 8 8 8 8 9 9 9 10 10 10 10 9 10 10 9 9 9 8 8 8 8 8 9
12 12 12 12 12 13 13 13 7 9 7 11 11 12 15 17 16 16 14 12 9 8 7 7 6 7 8 8 9 9 9 9 9 9 9 9 9 9 8 8 8 8 8 9
11 10 11 11 12 12 11 13 11 13 10 12 11 13 15 14 14 15 14 12 9 8 7 7 6 7 8 8 9 9 9 9 9 9 9 9 9 8 8 8 8 8 8 9
10 11 10 11 12 13 13 12 12 9 3 9 12 12 14 13 13 13 12 10 10 9 7 7 7 8 8 8 9 9 9 9 9 9 9 9 8 8 8 8 8 8 8 8
11 11 9 10 12 12 12 12 13 8 10 12 11 12 15 14 12 12 11 10 10 9 8 7 6 7 8 9 10 9 9 10 10 9 9 9 8 8 8 8 8 8 8 8
10 11 8 10 10 11 11 11 12 12 11 12 10 13 12 14 12 11 11 11 10 9 8 7 6 8 9 9 9 9 9 9 9 9 9 9 8 8 8 8 8 8 8 8
11 9 8 9 9 9 9 12 13 15 12 8 10 13 11 11 11 11 10 10 10 9 8 7 7 8 8 8 9 9 9 9 9 9 9 9 8 8 8 8 8 8 7 8
12 10 9 9 9 9 9 10 12 11 10 10 13 14 10 10 10 10 9 9 8 7 7 6 5 6 7 8 8 9 9 9 9 9 9 8 8 8 8 8 8 8 7 7
13 8 12 14 14 11 8 8 10 13 12 13 12 13 12 10 9 9 9 7 7 7 6 5 5 5 6 7 8 8 9 9 9 9 9 8 8 8 8 8 8 7 7 7
12 11 10 7 9 11 12 12 10 10 14 15 16 11 12 10 9 8 8 6 6 4 4 5 5 4 5 6 6 7 8 8 8 8 8 8 8 8 7 7 7 7 7 7
10 8 9 10 6 8 9 10 11 11 11 12 7 8 11 11 8 8 7 6 6 6 4 3 5 4 4 5 6 6 7 8 7 7 8 8 8 7 7 7 7 7 7 7
10 7 10 11 7 9 10 10 10 11 12 14 12 14 10 9 10 9 7 7 6 6 5 4 4 3 4 4 5 5 6 7 7 8 8 7 7 7 7 7 7 6 7 7
9 8 9 7 9 11 12 11 12 12 12 13 12 12 11 11 12 10 8 8 6 5 4 3 3 3 3 4 4 5 5 6 6 6 6 6 7 7 7 6 6 6 6 6
11 9 7 8 7 10 11 9 9 10 12 12 13 12 10 7 8 8 6 6 6 4 3 3 3 3 3 3 4 4 4 5 5 5 6 6 6 6 6 6 6 6 6 6
11 12 10 7 9 9 11 10 9 12 12 12 13 13 7 9 10 8 6 5 4 3 3 2 3 3 3 3 4 4 3 3 3 4 5 5 6 6 6 6 6 6 5 6
9 9 9 8 5 8 10 7 10 11 14 12 12 12 9 11 12 8 5 3 3 2 2 3 3 2 2 3 4 2 2 1 2 3 4 5 5 5 5 5 5 6 5 5
9 9 8 7 3 10 7 8 13 13 10 9 12 12 11 8 6 6 5 3 2 1 1 2 1 1 2 3 4 0 -1 1 2 3 3 4 4 4 4 4 5 4 4 5
8 9 7 9 11 8 9 9 10 9 9 9 10 10 10 6 6 5 3 2 1 1 0 1 0 0 1 2 2 0 -1 2 3 3 2 2 3 3 4 4 4 4 4 5
8 7 7 8 9 8 8 9 10 9 9 6 7 7 7 6 5 4 3 1 1 0 -1 -0 0 -1 -2 -0 -1 -1 -1 -0 1 0 -0 0 1 1 1 1 2 2 3 4
5 6 3 5 7 7 7 8 8 6 4 4 4 6 6 5 5 4 2 1 1 -1 -2 -0 -1 -2 -3 -1 0 -0 1 1 2 -1 -1 -1 -1 -1 -1 -0 0 1 2 3
3 6 10 9 7 9 8 6 5 5 4 4 4 3 4 5 4 3 2 1 -1 -3 -3 -2 -2 -2 -3 -0 0 1 2 2 3 2 0 -2 -2 -1 -1 -1 -1 -1 -0 1

GFSCGP_925_temp_339.txt.gz
Temp
12 12 10 12 13 15 15 15 16 16 16 15 14 14 16 16 15 15 16 15 14 12 12 12 12 12 13 13 13 13 12 11 11 10 10 10 10 9 9 9 9 8 8 8
11 10 12 12 13 14 15 15 16 16 16 15 14 15 16 15 15 15 15 14 13 11 9 8 9 10 11 12 12 12 12 11 11 11 11 11 10 9 9 9 9 8 8 8
11 13 12 12 12 13 13 14 15 17 16 15 13 15 17 17 15 14 13 12 11 10 9 7 7 8 10 11 12 12 12 11 11 10 11 10 9 9 8 9 9 8 8 8
12 12 11 11 12 12 12 12 14 16 16 15 14 15 16 18 16 15 14 12 10 9 8 7 7 7 9 10 11 12 11 11 10 10 11 10 10 9 9 9 9 8 8 8
12 10 11 11 12 13 13 12 12 15 15 14 14 15 15 16 17 16 14 11 9 8 8 8 7 8 9 10 11 11 10 10 10 10 10 10 10 9 9 9 9 8 8 8
12 12 12 13 12 13 10 12 11 10 11 9 13 14 14 16 17 18 14 11 10 8 8 8 8 8 8 9 9 10 10 9 10 10 10 10 9 9 9 9 8 8 8 8
11 11 12 12 11 12 13 13 8 10 7 11 10 12 16 16 16 16 14 11 9 8 7 7 7 7 7 8 8 9 9 9 9 9 9 9 9 9 9 9 9 8 8 8
11 10 10 11 13 12 11 13 11 13 11 12 10 13 15 14 13 15 13 11 9 8 7 7 7 7 7 8 8 8 9 9 9 9 9 9 9 9 9 9 9 8 8 8
10 12 10 10 11 13 12 12 12 9 2 9 12 12 14 12 14 13 12 10 9 8 7 7 6 7 7 8 8 9 9 9 9 9 9 9 9 9 9 8 8 8 8 8
11 11 9 10 12 12 12 12 13 9 10 11 11 12 16 15 13 11 11 10 10 8 7 7 6 7 8 9 9 9 9 9 9 9 9 9 9 8 8 8 8 8 8 8
9 11 8 10 10 11 11 11 13 12 11 12 10 14 12 15 13 12 11 10 9 9 8 7 6 7 8 8 8 9 8 9 9 9 9 9 9 8 8 8 8 8 8 8
10 9 7 9 9 9 9 13 13 14 11 7 10 13 12 11 12 11 11 10 9 8 7 7 6 7 7 8 8 8 8 9 9 9 9 9 8 8 8 8 8 8 8 8
11 10 8 9 10 8 8 10 13 12 10 10 12 17 10 10 10 10 10 9 8 8 7 6 5 5 6 7 8 8 9 9 9 8 8 8 8 8 8 8 8 8 8 8
13 7 14 14 13 11 9 9 11 14 14 15 12 16 14 11 10 9 9 8 7 6 6 5 4 4 6 7 8 8 8 9 8 8 8 8 8 8 8 8 7 7 8 8
11 12 9 7 10 11 11 12 11 12 15 14 16 11 14 11 10 8 8 7 6 5 4 4 4 3 5 6 7 7 8 8 8 8 8 8 8 8 8 7 7 7 7 7
9 7 6 7 5 8 8 11 11 11 13 14 8 9 10 10 7 8 7 6 6 5 4 4 4 3 4 5 6 7 8 8 8 8 8 8 8 8 8 7 7 7 7 7
9 7 8 11 5 9 10 10 10 11 13 13 11 16 10 9 10 10 9 8 8 6 5 4 4 3 4 5 6 6 6 7 7 7 7 7 7 7 7 7 7 7 7 6
11 10 9 7 9 11 13 12 11 12 12 13 14 13 14 11 12 12 9 9 7 6 5 4 3 3 4 4 5 5 5 6 6 6 6 6 6 6 6 6 6 6 6 6
12 11 8 9 10 10 11 9 10 11 13 12 13 14 13 9 9 9 7 7 8 5 4 4 4 3 3 3 4 4 4 4 5 5 5 6 6 6 6 6 6 6 6 6
11 11 11 7 8 11 12 8 9 12 13 14 13 13 8 10 13 12 6 7 4 4 3 2 3 2 3 3 4 4 3 3 3 4 5 5 5 6 6 6 6 6 5 6
9 10 10 8 7 7 10 7 12 12 15 12 13 13 9 13 16 11 7 5 4 3 2 2 2 2 2 2 3 2 2 1 2 3 4 4 5 5 5 5 5 5 5 4
9 10 10 8 7 9 7 9 13 15 11 12 11 12 12 12 7 7 7 4 3 1 1 1 0 -0 1 2 3 -1 -1 -0 2 3 3 3 4 4 4 4 4 4 3 4
6 8 8 10 11 9 9 11 10 8 11 10 9 10 11 7 6 7 4 3 2 1 1 0 -1 -2 -1 0 0 -2 -2 -0 1 1 0 1 2 3 3 4 4 3 3 4
5 5 6 8 9 7 8 8 9 9 10 8 7 8 7 6 6 5 4 3 2 1 -0 -1 -2 -3 -3 -2 -1 -1 -1 -0 -0 -1 -1 -1 -0 0 0 1 1 2 2 4
5 5 5 6 6 8 7 6 8 6 5 5 5 7 6 5 5 4 3 2 1 -1 -2 -1 -2 -4 -4 -2 -2 -1 -0 0 0 -1 -1 -1 -1 -1 -1 -1 -1 0 1 2
5 6 6 8 8 8 9 6 6 4 4 4 5 4 5 5 4 3 2 1 -0 -2 -3 -3 -4 -4 -4 -2 -1 -1 -0 1 2 0 -1 -2 -2 -1 -1 -1 -1 -1 -1 0

GFSCGP_925_temp_342.txt.gz
Temp
15 16 15 17 18 17 17 18 19 19 18 17 19 20 21 22 21 21 22 23 22 21 22 17 15 14 14 14 13 12 11 10 11 10 9 8 9 8 8 8 8 8 8 9
14 14 17 17 16 16 17 17 18 18 17 17 19 19 21 21 22 23 23 23 21 20 17 15 13 13 13 13 12 11 11 11 11 10 10 10 9 8 8 8 8 8 8 9
16 16 16 15 14 15 16 17 17 18 17 17 17 21 22 21 19 19 19 19 17 18 17 14 13 12 13 12 11 11 10 10 11 10 11 10 10 9 8 8 8 8 8 9
15 16 13 14 15 16 16 16 17 16 17 18 16 21 22 21 21 18 19 18 18 16 15 14 13 12 12 12 11 10 9 10 10 11 10 10 10 10 9 9 8 8 8 8
14 13 14 13 15 16 17 15 16 16 16 16 18 18 22 18 22 23 20 19 17 15 14 13 13 12 12 10 10 10 9 9 10 10 10 9 9 9 8 8 8 8 8 8
15 13 14 16 13 15 14 15 14 14 16 15 18 19 22 23 22 22 19 18 16 14 13 13 12 10 10 9 9 9 9 9 9 10 10 9 9 8 8 8 8 8 8 8
13 13 13 13 13 13 14 16 14 15 14 17 15 15 21 22 19 20 20 18 16 14 13 12 11 11 10 9 9 9 9 9 8 9 9 9 9 9 9 9 9 8 8 8
12 12 13 13 15 14 13 16 16 17 15 18 13 17 21 19 17 17 18 18 16 14 13 12 12 11 10 9 9 9 9 8 8 8 9 9 9 8 8 8 8 8 8 8
14 15 14 14 14 15 13 13 15 11 7 15 19 19 19 18 17 16 16 16 15 14 13 13 12 11 11 9 9 9 9 9 8 8 8 9 8 8 8 8 8 8 8 8
14 13 10 12 14 13 14 15 14 14 16 17 19 18 22 19 20 17 15 15 15 14 13 13 12 11 10 10 9 9 9 9 8 8 8 8 8 8 8 8 8 8 8 8
13 14 10 12 13 15 14 14 14 16 16 18 19 21 21 22 21 19 17 15 15 14 13 13 12 11 10 9 9 9 8 8 8 9 8 8 8 8 8 8 7 8 8 8
14 13 11 11 11 11 18 17 17 16 15 15 17 20 17 17 16 15 17 15 14 14 13 13 12 11 10 9 8 8 8 8 8 9 8 8 8 8 8 8 8 8 8 8
14 11 11 10 11 10 11 14 17 18 15 15 17 20 14 14 14 14 15 14 13 13 12 12 12 11 10 10 9 9 8 8 8 8 8 7 8 8 8 8 8 8 8 7
14 11 14 16 16 15 11 13 15 16 14 16 16 18 20 16 14 13 12 12 12 11 10 11 11 11 11 10 10 9 9 8 8 7 7 7 8 8 8 8 8 8 8 8
12 12 12 14 14 16 15 13 12 13 16 15 17 15 18 19 16 13 12 11 10 7 7 9 9 10 10 9 9 8 8 7 7 7 7 8 9 8 8 8 8 8 8 7
11 10 12 12 10 12 12 14 12 13 14 14 14 13 19 19 13 12 12 11 10 9 6 6 8 6 7 6 7 7 7 7 7 7 7 7 7 8 8 8 7 7 7 7
10 9 10 11 8 10 11 12 12 13 15 15 14 17 15 13 13 14 13 12 11 11 9 8 8 6 6 6 6 7 7 6 6 6 6 7 7 7 7 7 7 7 7 7
9 9 10 13 9 10 14 16 15 14 14 15 16 17 18 17 15 15 15 13 12 11 10 9 8 7 5 5 6 5 5 6 5 5 5 6 7 7 6 6 6 6 7 7
6 9 11 11 11 13 12 14 14 13 15 15 16 17 17 15 14 15 14 14 13 12 10 9 7 6 4 4 4 5 5 5 5 5 5 6 6 6 6 6 6 6 6 6
7 7 12 10 11 12 16 14 14 15 15 18 16 17 16 14 15 18 10 11 11 10 7 5 4 3 4 3 4 3 3 3 3 4 5 6 6 6 6 6 6 5 5 5
7 8 10 11 11 12 15 12 15 14 17 20 19 16 16 14 17 16 11 10 8 7 4 3 3 4 3 2 3 2 2 2 3 4 4 5 5 5 6 5 5 5 5 4
7 9 10 11 10 11 11 12 15 17 16 14 16 17 16 15 16 11 10 8 6 4 3 2 2 1 1 2 3 -0 -1 1 2 3 3 4 4 4 5 5 5 5 3 3
6 6 7 9 11 13 12 16 17 14 15 14 13 13 15 14 11 10 8 6 5 3 2 1 0 -1 -1 1 1 -1 -1 -0 1 2 2 2 3 3 4 4 3 2 3 3
6 6 6 7 10 10 12 12 13 10 12 11 10 11 13 11 9 8 6 5 4 2 0 -1 -1 -1 -2 -1 -1 -0 -1 -1 0 -0 -0 -0 0 0 1 1 1 2 2 3
6 6 7 7 8 9 10 11 11 9 8 8 8 10 11 9 8 7 5 4 3 1 -1 -1 -1 -2 -3 -1 -1 -1 -1 0 -1 -1 -1 -1 -1 -1 -0 -0 0 1 2 2
6 7 6 7 5 5 8 7 8 8 9 7 7 7 8 8 7 5 5 4 2 0 -1 -2 -3 -3 -4 -2 -2 -1 0 1 0 -1 -1 -1 -1 -1 -1 -1 -1 -1 -0 0

GFSCGP_925_temp_345.txt.gz
Temp
16 16 16 18 19 21 21 22 22 23 20 18 21 22 23 24 25 25 24 25 25 25 25 22 20 19 18 17 16 14 13 12 11 10 10 10 10 10 9 9 9 9 9 9
15 15 19 20 20 19 18 19 20 21 20 18 21 21 22 23 24 24 24 26 26 25 24 21 18 18 18 17 16 15 13 11 11 10 11 11 11 10 10 9 8 9 9 9
16 19 19 19 18 18 18 18 19 19 19 20 19 21 24 25 25 25 25 25 26 25 23 20 18 17 17 17 16 14 12 11 11 11 10 10 9 9 9 9 9 9 9 8
16 19 16 17 17 18 18 19 19 19 18 19 20 21 24 25 24 23 22 21 22 21 21 21 18 17 16 16 15 13 12 11 11 10 10 10 11 11 10 10 10 9 8 8
16 16 15 15 16 18 18 18 18 18 17 17 19 18 23 24 23 24 25 22 21 21 19 19 17 16 16 14 13 13 11 11 10 10 11 11 12 11 10 9 9 9 8 8
18 15 17 18 17 18 17 17 17 17 17 15 18 19 22 25 25 25 25 23 21 19 18 17 16 15 14 13 12 12 11 11 10 10 11 11 11 10 10 10 10 10 9 9
15 15 15 16 15 16 17 17 15 15 14 16 19 19 22 24 24 23 24 23 20 17 16 16 15 14 13 12 12 11 11 11 10 10 10 10 11 10 11 10 11 10 10 9
14 13 15 15 17 15 15 18 17 17 16 19 16 18 22 23 23 20 21 21 20 17 16 15 14 14 13 12 11 11 11 11 10 10 10 10 10 10 11 10 10 10 10 9
15 15 17 16 18 17 15 15 18 14 10 16 20 21 23 22 21 20 19 19 19 17 16 15 15 14 13 12 12 11 12 11 10 10 10 9 9 10 10 10 9 9 9 8
17 15 13 15 17 17 17 18 15 15 16 16 20 22 23 22 22 22 20 18 18 17 16 15 15 14 13 12 11 11 11 11 10 10 10 9 9 9 9 9 9 9 8 8
16 15 11 14 13 15 15 16 18 19 19 18 19 21 25 25 25 24 22 19 18 17 16 16 15 14 13 12 11 11 11 11 10 10 9 9 9 9 8 9 9 8 8 8
16 15 11 11 15 17 18 18 18 18 16 18 19 20 21 23 22 19 20 19 18 17 16 16 15 14 13 12 11 11 11 10 10 9 9 8 9 8 8 8 8 8 8 8
16 11 12 10 12 14 12 17 19 20 18 16 17 20 23 20 18 18 18 19 17 16 16 15 15 14 13 12 11 11 10 10 9 9 9 8 8 8 8 8 8 7 8 8
15 13 13 15 16 15 11 14 17 18 16 18 17 19 21 18 18 19 16 16 15 14 14 15 14 14 13 13 12 11 11 10 9 9 9 8 8 8 8 8 8 7 7 7
14 10 12 13 17 18 15 13 14 14 17 16 19 16 20 21 21 18 16 14 13 10 10 13 12 12 13 12 12 12 11 10 9 9 8 8 9 8 8 7 7 7 7 7
13 11 11 12 12 14 13 15 13 13 15 16 17 15 20 21 21 15 15 14 13 11 8 9 11 10 11 11 11 11 11 9 8 8 8 8 8 8 7 7 7 7 7 7
12 9 10 11 12 12 10 13 14 14 15 16 15 18 21 19 19 19 17 15 14 14 12 10 10 8 10 9 10 10 9 8 8 8 8 8 7 7 7 7 7 6 7 7
9 10 10 11 12 11 13 17 17 15 15 16 18 19 20 20 19 19 20 18 15 15 12 11 11 10 8 8 8 8 8 8 7 8 7 7 7 7 7 7 7 6 7 6
6 7 10 11 11 13 14 15 16 15 15 17 17 19 20 20 19 18 18 18 17 14 13 12 11 10 8 6 7 7 7 7 7 7 7 6 6 6 7 7 7 6 6 6
6 7 7 10 11 11 15 17 18 18 15 19 18 18 19 19 17 19 19 16 16 14 12 10 9 7 6 6 6 5 5 5 5 6 6 6 6 6 6 6 6 6 6 6
7 7 7 8 8 12 14 18 18 14 15 19 20 19 19 19 19 21 19 15 14 12 9 7 6 6 5 4 4 4 4 4 5 5 5 5 5 6 6 6 6 6 6 5
8 8 8 8 9 10 16 16 15 17 18 19 19 20 19 19 19 19 15 14 11 8 6 6 5 4 3 3 4 3 3 3 3 4 4 4 5 5 5 5 5 5 5 3
8 8 9 9 10 8 9 11 12 18 18 19 17 17 20 19 19 18 14 11 8 7 5 4 3 1 1 2 3 2 -0 2 2 3 3 3 4 4 4 4 4 3 2 3
8 7 7 7 7 7 9 11 11 12 13 14 15 16 17 18 18 14 11 9 7 4 3 1 1 -0 -1 1 2 1 1 1 2 1 1 1 2 2 2 2 2 2 2 3
7 7 7 7 8 7 8 9 8 8 9 10 12 13 14 15 14 11 8 6 5 3 1 1 1 -0 -1 -1 -0 1 0 1 0 -0 -0 -0 0 0 0 1 1 1 2 2
6 7 8 9 6 7 7 8 8 6 7 9 10 9 11 12 11 8 6 5 3 1 1 0 -0 -1 -2 -2 -1 -1 -0 1 0 -1 -1 -1 -1 -0 -0 -0 -0 0 1 2